Meteo Giornale » Osservazioni meteo Francia » Bastia
ore: 14:00 - Osservazioni Meteo Bastia
Lat. 42° 33' N Lon. 9° 29' E Alt. 8 metri s.l.m.
31 °C
Sereno
Temp. 24 Ore
22 °C
32 °C
Est/Sud-Est
18.5 Km/h
Dew point 21 °C
Umidità 55 %
Visibilità 10 Km
Il sole sorge alle ore 06:46
Il sole tramonta alle ore 19:58
| Data e Ora | Cielo e Fenomeni | T °C | DP °C | Um. % | Pres. hPa | Vis. km | Vento km/h | |
|---|---|---|---|---|---|---|---|---|
| Oggi h: 14:00 | Sereno | 31 | 21 | 55 | 1016 | 10 | E/SE 18.5 | |
| Oggi h: 13:30 | Poco Nuvoloso | 32 | 20 | 49 | 1016 | 10 | E/SE 18.5 | |
| Oggi h: 13:00 | Sereno | 31 | 20 | 52 | 1016 | 10 | SE 20.3 | |
| Oggi h: 12:30 | Sereno | 31 | 19 | 48 | 1016 | 10 | SE 20.3 | |
| Oggi h: 12:00 | Sereno | 31 | 18 | 45 | 1016 | 10 | SE 18.5 | |
| Oggi h: 11:30 | Sereno | 31 | 19 | 48 | 1016 | 10 | SE 14.8 | |
| Oggi h: 11:00 | Sereno | 31 | 18 | 45 | 1016 | 10 | S/SE 9.3 | |
| Oggi h: 10:30 | Sereno | 30 | 18 | 48 | 1016 | 10 | SE 13 | |
| Oggi h: 10:00 | Sereno | 29 | 17 | 48 | 1016 | 10 | S 7.4 | |
| Oggi h: 09:30 | Sereno | 28 | 16 | 48 | 1016 | 10 | S/SO 7.4 | |
| Oggi h: 09:00 | Sereno | 27 | 16 | 50 | 1016 | 10 | S/SO 9.3 | |
| Oggi h: 08:30 | Sereno | 26 | 16 | 54 | 1015 | 10 | SO 11.1 | |
| Oggi h: 08:00 | Sereno | 24 | 17 | 64 | 1015 | 10 | SO 7.4 | |
| Oggi h: 07:30 | Sereno | 23 | 17 | 68 | 1015 | 10 | O/SO 11.1 | |
| Oggi h: 07:00 | Sereno | 23 | 17 | 68 | 1015 | 10 | N 3.7 | |
| Oggi h: 06:30 | Sereno | 22 | 17 | 73 | 1015 | 10 | SO 9.3 | |
| Oggi h: 06:00 | Sereno | 23 | 17 | 68 | 1015 | 10 | SO 11.1 | |
| Oggi h: 05:30 | Sereno | 23 | 17 | 68 | 1015 | 10 | S/SO 9.3 | |
| Oggi h: 05:00 | Sereno | 23 | 18 | 73 | 1015 | 10 | S/SO 11.1 | |
| Oggi h: 04:30 | Sereno | 23 | 18 | 73 | 1015 | 10 | SO 11.1 | |
| Oggi h: 04:00 | Sereno | 22 | 18 | 78 | 1015 | 10 | S/SO 7.4 | |
| Oggi h: 03:30 | Sereno | 22 | 18 | 78 | 1015 | 10 | N 5.5 | |
| Oggi h: 03:00 | Sereno | 23 | 19 | 78 | 1015 | 10 | SO 7.4 | |
| Oggi h: 02:30 | Sereno | 24 | 19 | 73 | 1015 | 10 | O/SO 13 | |
| Oggi h: 02:00 | Sereno | 23 | 19 | 78 | 1015 | 10 | S/SO 7.4 | |
| Oggi h: 01:30 | Sereno | 23 | 19 | 78 | 1015 | 10 | SO 7.4 | |
| Oggi h: 01:00 | Sereno | 24 | 19 | 73 | 1015 | 10 | O/SO 7.4 | |
| Oggi h: 00:30 | Sereno | 24 | 20 | 78 | 1015 | 10 | N 5.5 | |
| Oggi h: 00:00 | Sereno | 23 | 20 | 83 | 1015 | 10 | N 5.5 | |
| Ieri h: 23:30 | Sereno | 23 | 20 | 83 | 1015 | 10 | SO 7.4 | |
| Ieri h: 23:00 | Sereno | 24 | 20 | 78 | 1015 | 10 | N 3.7 | |
| Ieri h: 22:30 | Sereno | 24 | 20 | 78 | 1015 | 10 | N 3.7 | |
| Ieri h: 22:00 | Sereno | 25 | 20 | 73 | 1015 | 10 | N 3.7 | |
| Ieri h: 21:30 | Sereno | 25 | 20 | 73 | 1015 | 10 | N 3.7 | |
| Ieri h: 21:00 | Sereno | 26 | 20 | 69 | 1014 | 10 | O 11.1 | |
| Ieri h: 20:30 | Molto Nuvoloso | 26 | 20 | 69 | 1014 | 10 | NO 11.1 | |
| Ieri h: 20:00 | Nuvoloso | 27 | 20 | 65 | 1014 | 10 | N 0 | |
| Ieri h: 19:30 | Nuvoloso | 27 | 20 | 65 | 1014 | 10 | N 1.8 | |
| Ieri h: 19:00 | Poco Nuvoloso | 28 | 19 | 58 | 1014 | 10 | N 5.5 | |
| Ieri h: 18:30 | Sereno | 29 | 20 | 58 | 1014 | 10 | SE 9.3 | |
| Ieri h: 18:00 | Poco Nuvoloso | 29 | 19 | 54 | 1014 | 10 | E/SE 11.1 | |
| Ieri h: 17:30 | Poco Nuvoloso | 30 | 19 | 51 | 1014 | 10 | E 11.1 | |
| Ieri h: 17:00 | Poco Nuvoloso | 30 | 19 | 51 | 1014 | 10 | E 11.1 | |
| Ieri h: 16:30 | Poco Nuvoloso | 30 | 19 | 51 | 1014 | 10 | E 13 | |
| Ieri h: 16:00 | Poco Nuvoloso | 30 | 20 | 55 | 1014 | 10 | E 11.1 | |
| Ieri h: 15:30 | Poco Nuvoloso | 30 | 20 | 55 | 1014 | 10 | E 13 | |
| Ieri h: 15:00 | Poco Nuvoloso | 30 | 19 | 51 | 1015 | 10 | E/NE 11.1 | |



